Voltar ao catálogo

STARLINK-30214

AtivoComunicaçõesVLEO
NORAD 57411·PAYLOAD·🇺🇸 United States

Lançado Jul 20, 2023 de Vandenberg Space Force Base

Loading…

Próximas Passagens (próximas 24 horas)

TLE

AtualizadoSource: CelesTrak SupGP

Época: Sep 14, 2026, 21:05 UTC

1 57411C 23102H   26257.87895833  .00030334  00000+0  10992-2 0  2571
2 57411  43.0021 260.0409 0001815 264.1429 154.0707 15.27549445    15

Acompanhe STARLINK-30214 em tempo real com AllMySat

Download on the App Store